Date String (YYYY-MM-DD hh:mm:ss) UTC,Instrument flags,Ambient pressure (hPa),Sample flow (lpm),Bypass flow (lpm),Sample temperature (°C),Ambient temperature (°C),ASC tube jacket temperature (°C),LED temperature (°C),Box temperature (°C),Sample RH (%),Span deviation,Mass concentration (μg/m³),Mass concentration (μg/m³),Mass concentration (μg/m³)
DateTimeUTC,F1_M11,P_M11,Q1_M11,Q2_M11,T1_M11,T2_M11,T3_M11,T4_M11,T5_M11,U1_M11,ZSPAN_M11,X0_M11,X2_M11,X1_M11
2022-03-28 20:00:00,,0817.7,5.02,0.00,29.5,28.9,00.0,38.3,31.4,05.2,0000.0,0007.69,0002.19,0001.28
2022-03-28 20:01:00,,0817.7,4.99,0.00,29.6,28.9,00.0,38.3,31.4,05.7,0000.0,0008.71,0002.26,0001.28
2022-03-28 20:02:00,,0817.7,4.99,0.00,29.6,29.0,00.0,38.3,31.4,05.9,0000.0,0009.14,0002.29,0001.26
2022-03-28 20:03:00,,0817.7,5.01,0.00,29.6,29.0,00.0,38.4,31.4,05.6,0000.0,0008.87,0002.26,0001.25
2022-03-28 20:04:00,,0817.7,5.00,0.00,29.7,29.0,00.0,38.4,31.5,05.4,0000.0,0008.85,0002.24,0001.26
2022-03-28 20:05:00,,0817.6,4.99,0.00,29.7,29.1,00.0,38.4,31.5,05.1,0000.0,0008.61,0002.26,0001.26
2022-03-28 20:06:00,,0817.6,5.01,0.00,29.7,29.1,00.0,38.5,31.5,05.0,0000.0,0008.17,0002.24,0001.25
2022-03-28 20:07:00,,0817.6,5.00,0.00,29.7,29.1,00.0,38.5,31.5,05.0,0000.0,0008.02,0002.16,0001.24
2022-03-28 20:08:00,,0817.5,4.99,0.00,29.8,29.1,00.0,38.5,31.6,04.9,0000.0,0007.93,0002.13,0001.23
2022-03-28 20:09:00,,0817.5,5.01,0.00,29.8,29.1,00.0,38.5,31.6,05.1,0000.0,0007.92,0002.14,0001.22
2022-03-28 20:10:00,,0817.5,4.99,0.00,29.8,29.2,00.0,38.6,31.6,04.9,0000.0,0007.77,0002.14,0001.22
2022-03-28 20:11:00,,0817.5,5.00,0.00,29.8,29.2,00.0,38.6,31.6,04.9,0000.0,0007.31,0002.10,0001.20
2022-03-28 20:12:00,,0817.4,5.02,0.00,29.8,29.2,00.0,38.6,31.6,05.0,0000.0,0005.63,0002.02,0001.19
2022-03-28 20:13:00,,0817.5,5.00,0.00,29.9,29.2,00.0,38.6,31.6,05.3,0000.0,0004.38,0001.97,0001.18
2022-03-28 20:14:00,,0817.4,5.00,0.00,29.9,29.2,00.0,38.6,31.7,05.0,0000.0,0004.13,0001.96,0001.16
2022-03-28 20:15:00,,0817.4,5.00,0.00,29.9,29.2,00.0,38.7,31.7,04.9,0000.0,0004.40,0001.97,0001.14
2022-03-28 20:16:00,,0817.4,5.02,0.00,29.9,29.3,00.0,38.7,31.7,04.3,0000.0,0005.10,0001.95,0001.12
2022-03-28 20:17:00,,0817.5,4.99,0.00,29.9,29.3,00.0,38.7,31.7,04.4,0000.0,0005.16,0001.95,0001.10
2022-03-28 20:18:00,,0817.5,5.00,0.00,30.0,29.3,00.0,38.7,31.7,04.5,0000.0,0005.15,0001.94,0001.09
2022-03-28 20:19:00,,0817.4,5.01,0.00,30.0,29.3,00.0,38.7,31.7,04.1,0000.0,0005.17,0001.94,0001.08
2022-03-28 20:20:00,,0817.5,5.01,0.00,30.0,29.4,00.0,38.8,31.8,04.3,0000.0,0005.19,0001.93,0001.07
2022-03-28 20:21:00,,0817.5,4.99,0.00,30.0,29.4,00.0,38.8,31.8,04.1,0000.0,0005.59,0001.94,0001.06
2022-03-28 20:22:00,,0817.4,5.00,0.00,30.0,29.4,00.0,38.8,31.8,04.0,0000.0,0005.30,0001.87,0001.04
2022-03-28 20:23:00,,0817.4,5.00,0.00,30.1,29.4,00.0,38.8,31.9,04.3,0000.0,0005.30,0001.87,0001.03
2022-03-28 20:24:00,,0817.4,4.99,0.00,30.1,29.4,00.0,38.9,31.9,04.7,0000.0,0005.30,0001.92,0001.04
2022-03-28 20:25:00,,0817.4,5.01,0.00,30.1,29.5,00.0,38.9,31.9,05.0,0000.0,0005.48,0001.97,0001.08
2022-03-28 20:26:00,,0817.3,4.99,0.00,30.1,29.5,00.0,38.9,32.0,03.9,0000.0,0006.04,0001.94,0001.09
2022-03-28 20:27:00,,0817.2,5.02,0.00,30.2,29.5,00.0,38.9,32.0,03.7,0000.0,0006.07,0001.85,0001.07
2022-03-28 20:28:00,,0817.1,4.99,0.00,30.2,29.5,00.0,39.0,32.0,04.0,0000.0,0006.06,0001.79,0001.06
2022-03-28 20:29:00,,0817.2,5.01,0.00,30.2,29.5,00.0,39.0,32.0,04.0,0000.0,0006.73,0001.80,0001.05
2022-03-28 20:30:00,,0817.2,5.00,0.00,30.2,29.6,00.0,39.0,32.0,03.9,0000.0,0007.16,0001.84,0001.03
2022-03-28 20:31:00,,0817.3,4.99,0.00,30.2,29.5,00.0,39.0,32.0,04.2,0000.0,0007.14,0001.86,0001.03
2022-03-28 20:32:00,,0817.2,5.01,0.00,30.2,29.6,00.0,39.0,32.0,03.8,0000.0,0006.71,0001.82,0001.02
2022-03-28 20:33:00,,0817.3,4.98,0.00,30.2,29.5,00.0,39.1,32.0,04.2,0000.0,0006.67,0001.82,0001.02
2022-03-28 20:34:00,,0817.3,5.01,0.00,30.2,29.6,00.0,39.1,32.0,03.8,0000.0,0006.50,0001.76,0001.01
2022-03-28 20:35:00,,0817.1,4.99,0.00,30.3,29.6,00.0,39.1,32.0,04.1,0000.0,0006.57,0001.65,0000.96
2022-03-28 20:36:00,,0817.2,5.01,0.00,30.3,29.5,00.0,39.1,32.0,04.1,0000.0,0006.32,0001.60,0000.90
2022-03-28 20:37:00,,0817.2,5.00,0.00,30.3,29.6,00.0,39.1,32.0,04.0,0000.0,0005.61,0001.62,0000.88
2022-03-28 20:38:00,,0817.1,4.99,0.00,30.3,29.6,00.0,39.1,32.0,03.7,0000.0,0005.12,0001.66,0000.88
2022-03-28 20:39:00,,0817.2,5.02,0.00,30.3,29.6,00.0,39.1,32.1,03.6,0000.0,0005.55,0001.70,0000.88
2022-03-28 20:40:00,,0817.2,4.99,0.00,30.3,29.6,00.0,39.2,32.1,03.6,0000.0,0005.01,0001.70,0000.88
2022-03-28 20:41:00,,0817.2,5.00,0.00,30.3,29.6,00.0,39.2,32.1,03.6,0000.0,0004.61,0001.65,0000.88
2022-03-28 20:42:00,,0817.2,5.01,0.00,30.4,29.6,00.0,39.2,32.1,03.5,0000.0,0004.58,0001.61,0000.89
2022-03-28 20:43:00,,0817.2,4.98,0.00,30.4,29.7,00.0,39.2,32.1,03.5,0000.0,0004.83,0001.66,0000.89
2022-03-28 20:44:00,,0817.1,5.02,0.00,30.4,29.7,00.0,39.2,32.1,03.8,0000.0,0006.38,0001.77,0000.90
2022-03-28 20:45:00,,0817.1,4.99,0.00,30.4,29.7,00.0,39.2,32.1,03.9,0000.0,0007.49,0001.86,0000.90
2022-03-28 20:46:00,,0817.1,5.02,0.00,30.4,29.7,00.0,39.2,32.1,03.8,0000.0,0007.57,0001.87,0000.91
2022-03-28 20:47:00,,0817.1,4.99,0.00,30.4,29.7,00.0,39.3,32.2,03.9,0000.0,0007.69,0001.84,0000.91
2022-03-28 20:48:00,,0817.1,5.01,0.00,30.4,29.7,00.0,39.3,32.1,04.1,0000.0,0008.13,0001.89,0000.91
2022-03-28 20:49:00,,0817.0,4.99,0.00,30.5,29.7,00.0,39.3,32.2,04.2,0000.0,0010.24,0002.19,0000.93
2022-03-28 20:50:00,,0817.0,5.00,0.00,30.5,29.8,00.0,39.3,32.2,03.6,0000.0,0010.88,0002.19,0000.94
2022-03-28 20:51:00,,0817.0,4.99,0.00,30.5,29.8,00.0,39.3,32.2,03.5,0000.0,0010.94,0002.21,0000.94
2022-03-28 20:52:00,,0817.0,5.01,0.00,30.5,29.8,00.0,39.3,32.2,03.4,0000.0,0010.94,0002.23,0000.93
2022-03-28 20:53:00,,0817.0,4.99,0.00,30.5,29.8,00.0,39.4,32.2,03.6,0000.0,0010.98,0002.23,0000.92
2022-03-28 20:54:00,,0817.1,5.01,0.00,30.5,29.8,00.0,39.4,32.2,03.7,0000.0,0010.71,0002.14,0000.91
2022-03-28 20:55:00,,0817.0,4.99,0.00,30.5,29.8,00.0,39.4,32.2,03.5,0000.0,0010.70,0002.13,0000.91
2022-03-28 20:56:00,,0817.2,5.00,0.00,30.6,29.8,00.0,39.4,32.3,03.5,0000.0,0010.64,0002.16,0000.91
2022-03-28 20:57:00,,0817.1,4.99,0.00,30.6,29.8,00.0,39.4,32.3,03.5,0000.0,0010.42,0002.13,0000.90
2022-03-28 20:58:00,,0817.1,5.01,0.00,30.6,29.8,00.0,39.4,32.3,03.7,0000.0,0010.59,0002.19,0000.90
2022-03-28 20:59:00,,0817.3,4.99,0.00,30.6,29.9,00.0,39.4,32.3,03.3,0000.0,0011.07,0002.37,0000.91
